"Pseudo-MPEC" for P10LgRN

Created 2019 Jan 14 12:18:25 UT using Find_Orb

Click here for an explanation of pseudo-MPECs

 
 Astrometry: 
     P10LgRN  C2019 01 09[oXAstrometryk57!U.N$pW%H\redacted;!o5Z7QM2N#XbKO`D4F51
     P10LgRN  C2019 01 09Q3Shclickh[G_8L-u(V0bm;5%Clhere8+qgaWePcxV@xwg]6:DevF51
     P10LgRN  C2019 01 09u^n7NforM4te@F,[#q1foA\6tZW1explanationJqV5m0d,XU4`jF51
     P10LgRN ^C2019 01 10.38194207 05 54.435+24 54 05.77   ~1AKI 22.19GVNEOCP568
     P10LgRN ^C2019 01 10.38288907 05 54.395+24 54 05.15   ~1AKI 22.30GVNEOCP568
     P10LgRN ^C2019 01 10.38384207 05 54.350+24 54 04.41   ~1AKI 22.26GVNEOCP568
     P10LgRN ^C2019 01 14.38504307 03 49.932+24 01 17.50   ~1EAI 22.62GVNEOCP568
     P10LgRN ^C2019 01 14.38599007 03 49.892+24 01 16.79   ~1EAI 22.39GVNEOCP568
     P10LgRN ^C2019 01 14.38694107 03 49.854+24 01 16.00   ~1EAI 22.42GVNEOCP568

Station data:
(568) Mauna Kea  (N19.826116 W155.472200)  US/Hawaii.
(F51) Pan-STARRS 1, Haleakala  (N20.707235 W156.255910)  US/Hawaii.
   Observers N. Primak, A. Schultz, S. Watters, J. Thiel, T. Goggia. Measurer
   PS1 Science Consortium. 1.8-m Ritchey-Chrétien + CCD.

Orbital elements:  P10LgRN
   Perihelion 2019 Jan 13.947850 +/- 0.599 TT = 22:44:54 (JD 2458497.447850)
Epoch 2019 Jan 14.0 TT = JDT 2458497.5   Earth MOID: 0.2979   AutoNEOCP
M   0.02293043 +/- 0.26             (J2000 ecliptic)
n   0.43969831 +/- 0.00824          Peri.  175.10227 +/- 0.45
a   1.71277184 +/- 0.0214           Node   296.07388 +/- 0.06
e   0.2519097 +/- 0.00524           Incl.    4.06237 +/- 0.09
P   2.24/818.73d           H 24.3   G  0.15   U  9.5  
q 1.28130786 +/- 0.00694    Q 2.14423582 +/- 0.0353
From 9 observations 2019 Jan. 9-14; mean residual 0".08
Residuals in arcseconds: 
190109 F51  .16-  .14-    190110 568  .02-  .07-    190114 568  .01+  .01-    
190109 F51  .22+  .02+    190110 568  .02+  .04+    190114 568  .01-  .03+    
190109 F51  .06-  .13+    190110 568  .00   .02+    190114 568  .00   .02-    

Ephemerides (geocentric):
Date (UTC) HH   RA              Dec         delta   r     elong  mag " sig PA
---- -- -- --  -------------   -----------  ------ ------ -----  --- ---- ---
2019 01 14 12  07 03 46.348   +23 59 43.83  .30081 1.2813 170.7 22.7 .091   1
2019 01 14 13  07 03 45.177   +23 59 10.60  .30083 1.2813 170.6 22.7 .099 170
2019 01 14 14  07 03 44.008   +23 58 37.38  .30086 1.2813 170.6 22.7 .109 162
2019 01 14 15  07 03 42.843   +23 58 04.15  .30089 1.2813 170.5 22.7 .122 154
2019 01 14 16  07 03 41.680   +23 57 30.92  .30092 1.2813 170.5 22.7 .137 149
2019 01 14 17  07 03 40.520   +23 56 57.68  .30095 1.2813 170.5 22.7 .153 144
2019 01 14 18  07 03 39.363   +23 56 24.45  .30098 1.2813 170.4 22.7 .170 140
2019 01 14 19  07 03 38.208   +23 55 51.21  .30101 1.2813 170.4 22.7 .188 137
2019 01 14 20  07 03 37.057   +23 55 17.97  .30104 1.2813 170.3 22.7 .207 134
2019 01 14 21  07 03 35.909   +23 54 44.73  .30107 1.2813 170.3 22.7 .227 132
2019 01 14 22  07 03 34.763   +23 54 11.48  .30110 1.2813 170.2 22.7 .247 130
2019 01 14 23  07 03 33.620   +23 53 38.24  .30113 1.2813 170.2 22.7 .268 128
2019 01 15 00  07 03 32.481   +23 53 04.99  .30116 1.2813 170.1 22.7 .290 126
2019 01 15 01  07 03 31.344   +23 52 31.74  .30119 1.2813 170.1 22.8 .312 125
2019 01 15 02  07 03 30.210   +23 51 58.49  .30122 1.2813 170.1 22.8 .334 124
2019 01 15 03  07 03 29.079   +23 51 25.24  .30125 1.2813 170.0 22.8 .357 123
2019 01 15 04  07 03 27.951   +23 50 51.98  .30128 1.2813 170.0 22.8 .380 122
2019 01 15 05  07 03 26.826   +23 50 18.73  .30131 1.2813 169.9 22.8 .404 121
2019 01 15 06  07 03 25.705   +23 49 45.47  .30135 1.2813 169.9 22.8 .428 120
2019 01 15 07  07 03 24.586   +23 49 12.21  .30138 1.2813 169.8 22.8 .453 120
2019 01 15 08  07 03 23.470   +23 48 38.95  .30141 1.2814 169.8 22.8 .478 119
2019 01 15 09  07 03 22.357   +23 48 05.69  .30144 1.2814 169.7 22.8 .503 118
2019 01 15 10  07 03 21.247   +23 47 32.43  .30148 1.2814 169.7 22.8 .529 118
2019 01 15 11  07 03 20.141   +23 46 59.17  .30151 1.2814 169.7 22.8 .555 117
2019 01 15 12  07 03 19.037   +23 46 25.91  .30154 1.2814 169.6 22.8 .582 117
2019 01 15 13  07 03 17.936   +23 45 52.64  .30157 1.2814 169.6 22.8 .609 116
2019 01 15 14  07 03 16.839   +23 45 19.38  .30161 1.2814 169.5 22.8 .636 116
2019 01 15 15  07 03 15.744   +23 44 46.11  .30164 1.2814 169.5 22.8 .664 116
2019 01 15 16  07 03 14.653   +23 44 12.84  .30168 1.2814 169.4 22.8 .693 115
2019 01 15 17  07 03 13.565   +23 43 39.58  .30171 1.2814 169.4 22.8 .721 115
2019 01 15 18  07 03 12.480   +23 43 06.31  .30175 1.2814 169.4 22.8 .750 115
2019 01 15 19  07 03 11.398   +23 42 33.04  .30178 1.2814 169.3 22.8 .780 114
2019 01 15 20  07 03 10.320   +23 41 59.78  .30182 1.2814 169.3 22.8 .810 114
2019 01 15 21  07 03 09.244   +23 41 26.51  .30185 1.2814 169.2 22.8 .840 114
2019 01 15 22  07 03 08.172   +23 40 53.24  .30189 1.2814 169.2 22.8 .871 114
2019 01 15 23  07 03 07.103   +23 40 19.97  .30192 1.2814 169.1 22.8 .902 113
2019 01 16 00  07 03 06.037   +23 39 46.70  .30196 1.2814 169.1 22.8 .933 113
2019 01 16 01  07 03 04.974   +23 39 13.43  .30199 1.2814 169.0 22.8 .965 113
2019 01 16 02  07 03 03.914   +23 38 40.17  .30203 1.2814 169.0 22.8 1.00 113
2019 01 16 03  07 03 02.858   +23 38 06.90  .30207 1.2814 169.0 22.8 1.03 112
2019 01 16 04  07 03 01.805   +23 37 33.63  .30210 1.2814 168.9 22.8 1.06 112
2019 01 16 05  07 03 00.755   +23 37 00.36  .30214 1.2814 168.9 22.8 1.10 112
2019 01 16 06  07 02 59.709   +23 36 27.09  .30218 1.2814 168.8 22.8 1.13 112
2019 01 16 07  07 02 58.665   +23 35 53.83  .30221 1.2814 168.8 22.8 1.16 112
2019 01 16 08  07 02 57.625   +23 35 20.56  .30225 1.2814 168.7 22.8 1.20 111
2019 01 16 09  07 02 56.589   +23 34 47.29  .30229 1.2814 168.7 22.8 1.23 111
2019 01 16 10  07 02 55.555   +23 34 14.03  .30233 1.2814 168.6 22.8 1.27 111
2019 01 16 11  07 02 54.525   +23 33 40.76  .30237 1.2815 168.6 22.8 1.31 111